IRIDIUM 130

Last updated on Sun Jun 21 2026 00:03:14 GMT+0000 (Coordinated Universal Time)

1 43073U 17083D 26171.39262245 .00000179 00000+0 57032-4 0 9993 2 43073 86.3974 320.9363 0001949 93.8613 266.2806 14.34220012444578
UTC large
Height (km)
Speed (km/s)
/
Latitude / Longitude
Inclination (degrees)
Orbital Period (minutes)
Azimuth
Elevation
Range (km)
Doppler Factor

Next 0 passes for location: London (51.5072 / 0.1276)

No passes found over London.
IRIDIUM 130